Regional Weather Roundup
Issued by NWS Jackson, KY

Home | Current Version | Previous Version | Graphics & Text | Print | Product List | Glossary On
Versions: 1 2 3 4 5 6 7 8 9 10 11 12 13 14 15 16 17 18 19 20 21 22 23 24 25 26 27 28 29 30 31 32 33 34 35 36 37 38 39 40 41 42 43 44 45 46 47 48 49 50
000
ASUS43 KJKL 161611
RWRJKL

EAST KENTUCKY HOURLY WEATHER ROUNDUP
NATIONAL WEATHER SERVICE JACKSON KY
1200 PM EDT TUE SEP 16 2014

NOTE: "FAIR" INDICATES FEW OR NO CLOUDS BELOW 12,000 FEET WITH
NO SIGNIFICANT WEATHER AND/OR OBSTRUCTIONS TO VISIBILITY.

* THESE REPORTS ARE NOT UNDER NWS QUALITY CONTROL AND MAY NOT
  REPORT WEATHER SUCH AS PRECIPITATION AND FOG.

KYZ079-080-083-085-087-088-110-112-115-119-120-161700
...EASTERN KENTUCKY...

CITY           SKY/WX    TMP DP  RH WIND       PRES   REMARKS
JACKSON        LGT RAIN  63  61  93 CALM      30.12S FOG
LONDON         CLOUDY    67  62  84 NW6       30.12F
MONTICELLO*    FOG       66  64  94 N6        30.14F VSB 1
WILLIAMSBURG*  CLOUDY    64  64 100 W3        30.13S
MIDDLESBORO*   CLOUDY    70  64  81 W3        30.12S
HARLAN APT*    CLOUDY    64  63  94 MISG      30.12F
BLACK MTN*       N/A     59  59 100 W1          N/A
BIG SANDY*     DRIZZLE   62  61  99 NE6       30.12S
MOREHEAD APT*  CLOUDY    61  59  94 VRB3      30.15S
$$

KYZ035-036-041-042-044-050-067-078-099-161700
...CENTRAL KENTUCKY...

CITY           SKY/WX    TMP DP  RH WIND       PRES   REMARKS
MT STERLING*   CLOUDY    61  59  94 NE7       30.15S
FLEMING/MASON* CLOUDY    59  55  88 NE8       30.16S
DANVILLE*      CLOUDY    64  59  82 N7        30.15S
RICHMOND*      CLOUDY    63  59  88 NE6       30.13S
LEXINGTON      CLOUDY    63  58  83 N8        30.15R
FRANKFORT      CLOUDY    61  57  87 N6        30.15S
$$

KYZ091>093-OHZ055-061-077-WVZ005-015-034-035-042-161700
...SOUTHERN OHIO/WEST VIRGINIA...

CITY           SKY/WX    TMP DP  RH WIND       PRES   REMARKS
COVINGTON      CLOUDY    58  51  78 N9        30.16S
COLUMBUS       CLOUDY    59  50  72 CALM      30.16F
DAYTON         CLOUDY    58  51  78 N5        30.18F
WILMINGTON     CLOUDY    56  50  80 N8        30.16F
HUNTINGTON     CLOUDY    60  56  86 VRB5      30.13S
PINEVILLE*     CLOUDY    66  64  92 MISG      30.16F
BECKLEY        CLOUDY    61  57  87 N3        30.13F
BLUEFIELD      CLOUDY    61  58  90 NW3       30.14F FOG
$$

VAZ002-007-008-TNZ017-027-036-066-071-161700
...SOUTHWEST VIRGINIA/EAST TENNESSEE...

CITY           SKY/WX    TMP DP  RH WIND       PRES   REMARKS
WISE*          CLOUDY    64  63  94 N5        30.15F
JONESVILLE*    CLOUDY    72  64  78 CALM      30.12F
ABINGDON*      CLOUDY    70  65  84 W9        30.11F
BRISTOL        CLOUDY    72  63  73 SW8       30.10F
KNOXVILLE      PTSUNNY   77  65  66 SW8       30.09F
OAK RIDGE      PTSUNNY   77  65  66 VRB3      30.11F
CROSSVILLE     CLOUDY    70  63  78 W6        30.16S
NASHVILLE      CLOUDY    69  64  84 N9        30.14S
$$

...KEY TO REMARKS...
VSB - VISIBILITY IN MILES
WCI - WIND CHILL INDEX
HX  - HEAT INDEX

$$



USA.gov is the U.S. government's official web portal to all federal, state and local government web resources and services.